This is the latest recevied weather packets stored in our database for station/object K6POO-1. If no packets are shown the sender has not sent any weather packets the latest 10 day(s).
| Time | Temp. | Humidity | Pressure | Rain* | Wind** | Luminosity | Snow |
|---|---|---|---|---|---|---|---|
| 1778183897 | 16.11° C | 74% | 1019.3 hPa | 0 mm | - | 998 W/m² | - |
| 1778183595 | 16.11° C | 75% | 1019.2 hPa | 0 mm | - | 1001 W/m² | - |
| 1778183292 | 16.11° C | 73% | 1019.2 hPa | 0 mm | - | 999 W/m² | - |
| 1778182988 | 16.11° C | 74% | 1019.3 hPa | 0 mm | - | 998 W/m² | - |
| 1778182684 | 16.11° C | 75% | 1019.4 hPa | 0 mm | - | 1020 W/m² | - |
| 1778182382 | 15.56° C | 75% | 1019.5 hPa | 0 mm | - | 1030 W/m² | - |
| 1778182077 | 16.11° C | 75% | 1019.6 hPa | 0 mm | - | 829 W/m² | - |
| 1778181774 | 16.11° C | 73% | 1019.4 hPa | 0 mm | - | 871 W/m² | - |
| 1778181470 | 16.11° C | 75% | 1019.6 hPa | 0 mm | - | 671 W/m² | - |
| 1778181167 | 16.11° C | 76% | 1019.4 hPa | 0 mm | - | 841 W/m² | - |
| 1778180864 | 15° C | 78% | 1019.6 hPa | 0 mm | - | 739 W/m² | - |
| 1778180563 | 15.56° C | 78% | 1019.6 hPa | 0 mm | - | 778 W/m² | - |
| 1778180261 | 15.56° C | 77% | 1019.7 hPa | 0 mm | - | 620 W/m² | - |
| 1778179957 | 16.11° C | 75% | 1019.6 hPa | 0 mm | - | 583 W/m² | - |
| 1778179655 | 15.56° C | 77% | 1019.7 hPa | 0 mm | - | 1033 W/m² | - |
| 1778179353 | 15.56° C | 76% | 1019.7 hPa | 0 mm | - | 837 W/m² | - |
| 1778179049 | 16.11° C | 75% | 1019.7 hPa | 0 mm | - | 681 W/m² | - |
| 1778178746 | 15.56° C | 75% | 1019.9 hPa | 0 mm | - | 929 W/m² | - |
| 1778178444 | 15.56° C | 75% | 1019.9 hPa | 0 mm | - | 772 W/m² | - |
| 1778178138 | 15.56° C | 73% | 1019.9 hPa | 0 mm | - | 742 W/m² | - |
| 1778177835 | 15.56° C | 74% | 1019.9 hPa | 0 mm | - | 956 W/m² | - |
| 1778177527 | 16.11° C | 75% | 1019.9 hPa | 0 mm | - | 1054 W/m² | - |
| 1778177223 | 15.56° C | 77% | 1019.9 hPa | 0 mm | - | 935 W/m² | - |
| 1778176921 | 15° C | 77% | 1020 hPa | 0 mm | - | 1037 W/m² | - |
| 1778176615 | 15° C | 77% | 1020 hPa | 0 mm | - | 364 W/m² | - |
* Rain latest hour (hover to see other rain measurements)
** Current wind speed in m/s (hover to see current wind gust speed)